Tracking 23731 objects as of 27-Sep-2021
HD Live streaming from Space Station
objects crossing your sky now

STARLINK-2147

Track STARLINK-2147 now!
10-day predictions
STARLINK-2147 is classified as:


NORAD ID: 47736
Int'l Code: 2021-017Q
Perigee: 553.7 km
Apogee: 555.0 km
Inclination: 53.1 °
Period: 95.6 minutes
Semi major axis: 6925 km
RCS: Unknown
Launch date: March 4, 2021
Source: United States (US)
Launch site: AIR FORCE EASTERN TEST RANGE (AFETR)
aabbcc
Your satellite tracking list
Your tracking list is empty




NASA's NSSDC Master Catalog

Two Line Element Set (TLE):
1 47736U 21017Q   21270.07237562  .00000682  00000-0  64635-4 0  9996
2 47736  53.0572 294.7972 0000882  87.9076 272.2014 15.06399151 32379
Source of the keplerian elements: AFSPC